Home > Weather > Inverness > Past weeks

Flag for USA Past Weather in Inverness, Florida, USA — Yesterday and Last 2 Weeks

Now
84 °F

Warm.


Feels Like: 92 °F
Forecast: 73 / 90 °F
Wind: No wind

Location: The Villages

Current Time: Jun 27, 2016 at 10:56:00 AM

Latest Report: Jun 27, 2016 at 10:15 AM


Visibility: 10 mi

Pressure: 30.00 "Hg

Humidity: 74%

Dew Point: 75 °F

Location of InvernessLocation

Past Weather in Inverness — Graph

°F

Inverness Temperature Yesterday

Maximum temperature yesterday: 93 °F (at 1:35 PM)
Minimum temperature yesterday: 75 °F (at 10:35 PM)
Average temperature yesterday: 82 °F

High & Low Weather Summary for the Past Weeks

 TemperatureHumidityPressure
High97 °F (Jun 24, 3:15 PM)100% (Jun 12, 11:35 PM)30.13 "Hg (Jun 12, 11:35 PM)
Low64 °F (Jun 21, 5:35 AM)33% (Jun 20, 6:15 PM)29.77 "Hg (Jun 17, 6:15 PM)
Average82 °F75%29.96 "Hg
* Reported Jun 12 9:15 AM — Jun 27 9:55 AM, Inverness, Weather by CustomWeather, © 2016

Note: Actual official high and low records may vary slightly from our data, if they occured in-between our weather recording intervals... More about our weather records

Advertising

Inverness Weather History for the Previous 24 Hours

Scroll right to see more
 ConditionsComfort  
Time TempWeatherWind HumidityBarometerVisibility
9:55 AM
Mon, Jun 27
84 °FWarm.No wind70%30.00 "Hg10 mi
9:35 AM82 °FWarm.No wind74%30.00 "Hg10 mi
9:15 AM82 °FWarm.No wind74%29.99 "Hg10 mi
8:55 AM81 °FWarm.No wind79%30.00 "Hg10 mi
8:35 AM79 °FWarm.No wind84%30.00 "Hg10 mi
8:15 AM79 °FWarm.No wind84%30.00 "Hg10 mi
7:55 AM77 °FWarm.No wind89%30.00 "Hg10 mi
7:35 AM75 °FMild.No wind94%30.00 "Hg10 mi
7:15 AM73 °FMild.No wind100%29.99 "Hg10 mi
6:55 AM73 °FMild.No wind100%29.99 "Hg10 mi
6:35 AM73 °FMild.No wind100%29.99 "Hg7 mi
6:15 AM73 °FMild.No wind100%29.98 "Hg10 mi
5:55 AM73 °FMild.No wind100%29.98 "Hg10 mi
5:15 AM73 °FMild.No wind100%29.97 "Hg10 mi
4:55 AM73 °FMild.No wind100%29.97 "Hg10 mi
4:35 AM73 °FMild.No wind100%29.96 "Hg8 mi
4:15 AM73 °FMild.No wind100%29.96 "Hg10 mi
3:55 AM73 °FMild.No wind100%29.96 "Hg10 mi
3:35 AM73 °FMild.No wind100%29.95 "Hg10 mi
3:15 AM75 °FMild.No wind94%29.96 "Hg10 mi
2:55 AM73 °FMild.No wind100%29.96 "Hg10 mi
2:35 AM75 °FMild.No wind94%29.97 "Hg10 mi
2:15 AM75 °FMild.No wind94%29.97 "Hg10 mi
1:55 AM75 °FMild.No wind94%29.97 "Hg10 mi
1:35 AM75 °FMild.No wind94%29.98 "HgN/A
1:15 AM75 °FMild.No wind94%29.99 "Hg10 mi
12:55 AM75 °FMild.No wind94%29.99 "Hg10 mi
12:15 AM75 °FMild.N/A94%N/A10 mi
11:55 PM
Sun, Jun 26
75 °FMild.No wind94%29.99 "Hg8 mi
11:35 PM75 °FMild.No wind94%29.99 "Hg10 mi
11:15 PM77 °FWarm.No wind89%29.99 "Hg10 mi
10:55 PM77 °FWarm.No wind89%29.99 "Hg10 mi
10:35 PM75 °FMild.No wind94%29.99 "Hg10 mi
10:15 PM77 °FWarm.No wind89%29.99 "Hg10 mi
9:55 PM77 °FWarm.No wind89%30.00 "Hg10 mi
9:35 PM77 °FWarm.No wind89%30.00 "Hg8 mi
9:15 PM79 °FWarm.No wind84%30.00 "Hg10 mi
8:55 PM79 °FWarm.No wind84%29.99 "Hg10 mi
8:35 PM79 °FWarm.No wind84%29.99 "Hg10 mi
8:15 PM79 °FWarm.No wind84%29.98 "Hg10 mi
7:55 PM81 °FWarm.No wind79%29.98 "Hg10 mi
7:35 PM82 °FWarm.No wind66%29.97 "Hg10 mi
7:15 PM82 °FWarm.No wind66%29.98 "Hg10 mi
6:55 PM82 °FWarm.N/A66%29.98 "Hg10 mi
6:35 PM82 °FWarm.N/A70%29.99 "Hg10 mi
6:15 PM84 °FWarm.3 mph62%29.98 "Hg10 mi
5:55 PM82 °FWarm.N/A70%29.98 "Hg10 mi
5:15 PM84 °FWarm.N/A70%29.98 "Hg9 mi
4:55 PM84 °FWarm.N/A70%29.98 "Hg7 mi
4:35 PM84 °FWarm.No wind66%29.98 "Hg8 mi
4:15 PM81 °FWarm.N/A74%29.99 "Hg10 mi
3:55 PM81 °FWarm.N/A70%30.00 "Hg9 mi
3:35 PM81 °FWarm.13 mph70%30.00 "Hg10 mi
3:15 PM90 °FHot.No wind63%29.99 "Hg10 mi
2:55 PM91 °FHot.N/A59%29.99 "Hg10 mi
2:15 PM90 °FHot.12 mph63%29.99 "Hg10 mi
1:55 PM91 °FHot.14 mph59%29.99 "Hg7 mi
1:35 PM93 °FExtremely hot.N/A59%29.99 "Hg8 mi
1:15 PM91 °FHot.7 mph63%30.01 "Hg7 mi
12:55 PM91 °FHot.N/A63%30.01 "Hg10 mi
12:35 PM91 °FHot.N/A63%30.02 "Hg7 mi
12:15 PM91 °FHot.N/A67%30.02 "Hg9 mi
11:55 AM90 °FHot.N/A71%30.03 "Hg10 mi
11:35 AM90 °FHot.N/A71%30.04 "Hg7 mi
11:15 AM90 °FHot.No wind71%30.04 "Hg8 mi
10:55 AM86 °FWarm.N/A75%30.04 "Hg10 mi
10:35 AM86 °FWarm.No wind75%30.04 "Hg10 mi
10:15 AM88 °FWarm.N/A75%30.04 "Hg7 mi
Weather by CustomWeather, © 2016

See weather overviewHow to use our weather pages